Time,TemperatureF,DewpointF,PressureIn,WindDirection,WindDirectionDegrees,WindSpeedMPH,WindSpeedGustMPH,Humidity,HourlyPrecipIn,Conditions,Clouds,dailyrainin,SoftwareType,DateUTC
2013-04-09 00:05:00,68.9,68.3,29.57,ESE,112,7.3,-999.0,98,-99.99,,,0.00,Acu-Link.com,2013-04-09 05:05:00,
2013-04-09 00:20:00,68.9,68.3,29.57,SE,135,6.8,-999.0,98,-99.99,,,0.00,Acu-Link.com,2013-04-09 05:20:00,
2013-04-09 00:35:00,69.1,68.5,29.56,East,90,8.3,-999.0,98,-99.99,,,0.00,Acu-Link.com,2013-04-09 05:35:00,
2013-04-09 00:50:00,69.1,68.5,29.56,SSE,157,8.9,-999.0,98,-99.99,,,0.00,Acu-Link.com,2013-04-09 05:50:00,
2013-04-09 01:05:00,69.1,68.5,29.56,SSE,157,6.8,-999.0,98,-99.99,,,0.00,Acu-Link.com,2013-04-09 06:05:00,
2013-04-09 01:21:00,69.4,68.8,29.56,SE,135,5.8,-999.0,98,-99.99,,,0.00,Acu-Link.com,2013-04-09 06:21:00,
2013-04-09 01:36:00,69.6,69.0,29.57,SE,135,5.8,-999.0,98,-99.99,,,0.00,Acu-Link.com,2013-04-09 06:36:00,
2013-04-09 02:36:00,69.6,69.0,29.56,ESE,112,4.7,-999.0,98,-99.99,,,0.00,Acu-Link.com,2013-04-09 07:36:00,
2013-04-09 03:07:00,69.8,69.2,29.55,South,180,7.8,-999.0,98,-99.99,,,0.00,Acu-Link.com,2013-04-09 08:07:00,
2013-04-09 03:22:00,69.8,69.2,29.56,SW,225,6.8,-999.0,98,-99.99,,,0.00,Acu-Link.com,2013-04-09 08:22:00,
2013-04-09 03:37:00,69.8,69.2,29.55,ESE,112,4.7,-999.0,98,-99.99,,,0.00,Acu-Link.com,2013-04-09 08:37:00,
2013-04-09 03:52:00,69.6,69.0,29.55,SSW,202,6.3,-999.0,98,-99.99,,,0.00,Acu-Link.com,2013-04-09 08:52:00,
2013-04-09 04:07:00,69.6,69.0,29.53,SE,135,5.3,-999.0,98,-99.99,,,0.00,Acu-Link.com,2013-04-09 09:07:00,
2013-04-09 04:22:00,69.8,69.2,29.53,SSE,157,6.3,-999.0,98,-99.99,,,0.00,Acu-Link.com,2013-04-09 09:22:00,
2013-04-09 04:38:00,69.6,69.0,29.54,WSW,247,4.2,-999.0,98,-99.99,,,0.00,Acu-Link.com,2013-04-09 09:38:00,
2013-04-09 04:53:00,69.6,69.0,29.54,NNW,337,6.8,-999.0,98,-99.99,,,0.00,Acu-Link.com,2013-04-09 09:53:00,
2013-04-09 05:08:00,69.3,68.7,29.54,SSE,157,3.2,-999.0,98,-99.99,,,0.00,Acu-Link.com,2013-04-09 10:08:00,
2013-04-09 05:23:00,69.1,68.5,29.55,SSE,157,3.2,-999.0,98,-99.99,,,0.00,Acu-Link.com,2013-04-09 10:23:00,
2013-04-09 06:39:00,69.3,68.7,29.56,SE,135,4.7,-999.0,98,-99.99,,,0.00,Acu-Link.com,2013-04-09 11:39:00,
2013-04-09 06:54:00,69.3,68.7,29.55,SSW,202,2.2,-999.0,98,-99.99,,,0.00,Acu-Link.com,2013-04-09 11:54:00,
2013-04-09 07:24:00,69.4,68.8,29.56,SE,135,4.2,-999.0,98,-99.99,,,0.00,Acu-Link.com,2013-04-09 12:24:00,
2013-04-09 07:54:00,69.6,69.0,29.55,SE,135,3.7,-999.0,98,-99.99,,,0.00,Acu-Link.com,2013-04-09 12:54:00,
2013-04-09 08:09:00,69.4,68.8,29.56,SSE,157,3.2,-999.0,98,-99.99,,,0.00,Acu-Link.com,2013-04-09 13:09:00,
2013-04-09 08:25:00,69.6,69.0,29.56,ESE,112,4.2,-999.0,98,-99.99,,,0.00,Acu-Link.com,2013-04-09 13:25:00,
2013-04-09 08:40:00,70.0,69.4,29.56,SE,135,5.3,-999.0,98,-99.99,,,0.00,Acu-Link.com,2013-04-09 13:40:00,
2013-04-09 08:55:00,70.0,69.4,29.56,SSE,157,5.3,-999.0,98,-99.99,,,0.00,Acu-Link.com,2013-04-09 13:55:00,
2013-04-09 09:10:00,70.0,69.4,29.57,SE,135,8.9,-999.0,98,-99.99,,,0.00,Acu-Link.com,2013-04-09 14:10:00,
2013-04-09 09:25:00,70.0,69.4,29.56,ESE,112,6.3,-999.0,98,-99.99,,,0.00,Acu-Link.com,2013-04-09 14:25:00,
2013-04-09 09:40:00,70.3,69.7,29.56,ESE,112,4.2,-999.0,98,-99.99,,,0.00,Acu-Link.com,2013-04-09 14:40:00,
2013-04-09 09:55:00,70.5,69.9,29.55,ENE,67,6.3,-999.0,98,-99.99,,,0.00,Acu-Link.com,2013-04-09 14:55:00,
2013-04-09 10:10:00,70.9,70.3,29.55,SE,135,4.7,-999.0,98,-99.99,,,0.00,Acu-Link.com,2013-04-09 15:10:00,
2013-04-09 10:25:00,70.9,70.3,29.56,ESE,112,4.2,-999.0,98,-99.99,,,0.00,Acu-Link.com,2013-04-09 15:25:00,
2013-04-09 10:41:00,70.3,69.7,29.57,ESE,112,4.2,-999.0,98,-99.99,,,0.00,Acu-Link.com,2013-04-09 15:41:00,
2013-04-09 10:56:00,70.3,69.7,29.57,SE,135,5.3,-999.0,98,-99.99,,,0.00,Acu-Link.com,2013-04-09 15:56:00,
2013-04-09 11:14:00,70.9,70.3,29.58,East,90,4.7,-999.0,98,-99.99,,,0.00,Acu-Link.com,2013-04-09 16:14:00,
2013-04-09 11:29:00,71.2,70.6,29.58,SE,135,7.8,-999.0,98,-99.99,,,0.00,Acu-Link.com,2013-04-09 16:29:00,
2013-04-09 11:52:00,71.4,70.8,29.58,SSE,157,5.3,-999.0,98,-99.99,,,0.00,Acu-Link.com,2013-04-09 16:52:00,
2013-04-09 12:22:00,71.6,71.0,29.58,West,270,8.9,-999.0,98,-99.99,,,0.00,Acu-Link.com,2013-04-09 17:22:00,
2013-04-09 12:37:00,71.6,71.0,29.58,ESE,112,6.8,-999.0,98,-99.99,,,0.00,Acu-Link.com,2013-04-09 17:37:00,
2013-04-09 12:52:00,71.6,71.0,29.57,ENE,67,2.2,-999.0,98,-99.99,,,0.00,Acu-Link.com,2013-04-09 17:52:00,
2013-04-09 13:07:00,72.0,71.4,29.57,ESE,112,7.3,-999.0,98,-99.99,,,0.00,Acu-Link.com,2013-04-09 18:07:00,
2013-04-09 13:22:00,72.5,71.9,29.56,ESE,112,2.7,-999.0,98,-99.99,,,0.00,Acu-Link.com,2013-04-09 18:22:00,
2013-04-09 13:38:00,73.4,72.8,29.56,SE,135,2.7,-999.0,98,-99.99,,,0.00,Acu-Link.com,2013-04-09 18:38:00,
2013-04-09 13:53:00,74.7,74.1,29.54,SSE,157,4.7,-999.0,98,-99.99,,,0.00,Acu-Link.com,2013-04-09 18:53:00,
2013-04-09 14:08:00,75.6,75.0,29.54,SE,135,5.8,-999.0,98,-99.99,,,0.00,Acu-Link.com,2013-04-09 19:08:00,
2013-04-09 14:23:00,78.4,77.8,29.53,ESE,112,6.3,-999.0,98,-99.99,,,0.00,Acu-Link.com,2013-04-09 19:23:00,
2013-04-09 14:38:00,81.1,80.5,29.52,South,180,8.9,-999.0,98,-99.99,,,0.00,Acu-Link.com,2013-04-09 19:38:00,
2013-04-09 14:53:00,78.6,78.0,29.51,ESE,112,6.3,-999.0,98,-99.99,,,0.00,Acu-Link.com,2013-04-09 19:53:00,
2013-04-09 15:08:00,81.5,80.9,29.51,SE,135,6.8,-999.0,98,-99.99,,,0.00,Acu-Link.com,2013-04-09 20:08:00,
2013-04-09 15:23:00,80.4,79.8,29.49,ESE,112,4.2,-999.0,98,-99.99,,,0.00,Acu-Link.com,2013-04-09 20:23:00,
2013-04-09 15:38:00,81.7,81.1,29.48,SE,135,5.8,-999.0,98,-99.99,,,0.00,Acu-Link.com,2013-04-09 20:38:00,
2013-04-09 16:01:00,82.6,82.0,29.48,SSE,157,5.8,-999.0,98,-99.99,,,0.00,Acu-Link.com,2013-04-09 21:01:00,
2013-04-09 17:01:00,84.6,84.0,29.47,SSE,157,8.3,-999.0,98,-99.99,,,0.00,Acu-Link.com,2013-04-09 22:01:00,
2013-04-09 17:16:00,82.8,82.2,29.47,East,90,7.8,-999.0,98,-99.99,,,0.00,Acu-Link.com,2013-04-09 22:16:00,
2013-04-09 17:46:00,83.3,82.7,29.46,ESE,112,9.4,-999.0,98,-99.99,,,0.00,Acu-Link.com,2013-04-09 22:46:00,
2013-04-09 18:02:00,82.9,82.3,29.46,SSE,157,7.3,-999.0,98,-99.99,,,0.00,Acu-Link.com,2013-04-09 23:02:00,
2013-04-09 18:17:00,82.8,82.2,29.45,SSE,157,6.3,-999.0,98,-99.99,,,0.00,Acu-Link.com,2013-04-09 23:17:00,
2013-04-09 18:32:00,82.4,81.8,29.46,ESE,112,11.9,-999.0,98,-99.99,,,0.00,Acu-Link.com,2013-04-09 23:32:00,
2013-04-09 18:47:00,81.5,80.9,29.47,ESE,112,9.4,-999.0,98,-99.99,,,0.00,Acu-Link.com,2013-04-09 23:47:00,
2013-04-09 19:17:00,79.0,78.4,29.47,ESE,112,12.5,-999.0,98,-99.99,,,0.00,Acu-Link.com,2013-04-10 00:17:00,
2013-04-09 19:32:00,78.3,77.7,29.49,ESE,112,10.4,-999.0,98,-99.99,,,0.00,Acu-Link.com,2013-04-10 00:32:00,
2013-04-09 19:47:00,77.4,76.8,29.49,East,90,9.9,-999.0,98,-99.99,,,0.00,Acu-Link.com,2013-04-10 00:47:00,
2013-04-09 20:02:00,76.1,75.5,29.49,ESE,112,9.4,-999.0,98,-99.99,,,0.00,Acu-Link.com,2013-04-10 01:02:00,
2013-04-09 20:18:00,75.7,75.1,29.49,ESE,112,9.4,-999.0,98,-99.99,,,0.00,Acu-Link.com,2013-04-10 01:18:00,
2013-04-09 20:33:00,75.0,74.4,29.50,East,90,9.4,-999.0,98,-99.99,,,0.00,Acu-Link.com,2013-04-10 01:33:00,
2013-04-09 20:48:00,74.5,73.9,29.50,ESE,112,7.8,-999.0,98,-99.99,,,0.00,Acu-Link.com,2013-04-10 01:48:00,
2013-04-09 21:03:00,74.1,73.5,29.50,ESE,112,10.4,-999.0,98,-99.99,,,0.00,Acu-Link.com,2013-04-10 02:03:00,
2013-04-09 21:18:00,73.8,73.2,29.51,ESE,112,7.8,-999.0,98,-99.99,,,0.00,Acu-Link.com,2013-04-10 02:18:00,
2013-04-09 21:33:00,73.4,72.8,29.52,SSE,157,6.3,-999.0,98,-99.99,,,0.00,Acu-Link.com,2013-04-10 02:33:00,
2013-04-09 21:48:00,72.9,72.3,29.53,ESE,112,7.3,-999.0,98,-99.99,,,0.00,Acu-Link.com,2013-04-10 02:48:00,
2013-04-09 22:03:00,72.9,72.3,29.54,ESE,112,6.8,-999.0,98,-99.99,,,0.00,Acu-Link.com,2013-04-10 03:03:00,
2013-04-09 22:18:00,72.9,72.3,29.55,ESE,112,7.8,-999.0,98,-99.99,,,0.00,Acu-Link.com,2013-04-10 03:18:00,
2013-04-09 22:34:00,72.9,72.3,29.55,ESE,112,10.4,-999.0,98,-99.99,,,0.00,Acu-Link.com,2013-04-10 03:34:00,
2013-04-09 22:49:00,72.9,72.3,29.55,ENE,67,7.3,-999.0,98,-99.99,,,0.00,Acu-Link.com,2013-04-10 03:49:00,
2013-04-09 23:04:00,73.0,72.4,29.55,SSE,157,10.9,-999.0,98,-99.99,,,0.00,Acu-Link.com,2013-04-10 04:04:00,
2013-04-09 23:19:00,73.0,72.4,29.56,ESE,112,7.8,-999.0,98,-99.99,,,0.00,Acu-Link.com,2013-04-10 04:19:00,
2013-04-09 23:34:00,72.9,72.3,29.56,SSE,157,7.3,-999.0,98,-99.99,,,0.00,Acu-Link.com,2013-04-10 04:34:00,
2013-04-09 23:49:00,73.0,72.4,29.56,ESE,112,12.5,-999.0,98,-99.99,,,0.00,Acu-Link.com,2013-04-10 04:49:00,